Hourly Data Report for February 19, 2004

SHERBROOKE A
QUEBEC

45°26'00.000" N
71°41'00.000" W
241.40 m
7028124
71610
YSC

Download Data

Hourly Data (February 2004)
Hourly Data Report for February 19, 2004
TIME
LST
Temp Definition
°C
Dew Point Definition
°C
Rel Hum Definition
%
Precip. Amount Definition
mm

Wind Dir Definition
10's deg

Wind Spd Definition
km/h
Visibility Definition
km
Stn Press Definition
kPa
Hmdx Definition


Wind Chill Definition


Weather Definition


00:00 -17.2 -21.1 72   12 6 15.0 98.42   -22  
01:00 -16.0 -19.8 72   10 11 15.0 98.34   -23  
02:00 -16.8 -20.7 72   26 4 15.0 98.21   -20  
03:00 -18.2 -21.6 75   11 6 15.0 98.21   -23  
04:00 -17.7 -21.2 74   12 4 15.0 98.11   -21  
05:00 -17.4 -21.1 73     0 15.0 98.04      
06:00 -19.0 -22.5 74   10 7 15.0 98.01   -24  
07:00 -20.4 -23.9 74   7 4 15.0 98.05   -24  
08:00 -17.8 -21.4 73     0 19.3 98.10     Clear
09:00 -13.3 -19.0 62   8 4 24.1 98.06   -16 Clear
10:00 -10.6 -18.1 54     0 24.1 98.06     Clear
11:00 -6.9 -15.4 51   27 7 24.1 98.01   -10 Clear
12:00 -4.5 -14.0 47   31 13 24.1 97.96   -10 Clear
13:00 -3.8 -13.1 48   28 20 24.1 97.93   -10 Clear
14:00 -2.8 -14.0 42   30 19 24.1 97.93   -9 Clear
15:00 -3.2 -13.6 44   32 19 24.1 98.00   -9 Clear
16:00 -4.1 -14.0 46   31 20 24.1 98.08   -10 Clear
17:00 -5.0 -13.9 50   30 15 24.1 98.15   -11 Clear
18:00 -7.9 -14.9 57   27 13 12.9 98.26   -14  
19:00 -7.8 -15.0 56   27 13 15.0 98.31   -14  
20:00 -11.7 -16.7 66     0 11.3 98.36      
21:00 -9.3 -14.4 66   25 11 8.0 98.43   -15  
22:00 -13.4 -17.3 72     0 5.6 98.43      
23:00 -14.6 -18.3 73   12 4 3.9 98.42   -17  

Notes on Data Quality.

Legend

  • E = Estimated
  • M = Missing
  • NA = Not Available*
  • [empty] = Indicates an unobserved value
Date modified: